Погода в Пушкино

Россия / Республика Крым     45°12′05″N   34°58′35″E
темп.,
°C
ветер,
м/с
пор.,
м/с
влажн.,
%
обл.,
%
осадки,
мм/ч
давл.,
гПа
погр.,
м
4 декабря, сб
сб400:00+9ююз479038 0.0 1013109
03:00+9ююз3588100 0.0 101365
06:00+10ююз3487100 0.0 101261
09:00+10ююз2289100 0.0 101336
12:00+12ююв238082 0.2 1011124
15:00+15юз0464100 0.2 1009335
18:00+7с5693100 0.0 1010317
21:00+7ссв3393100 0.3 1009302
5 декабря, вс
вс500:00+7ссв3395100 0.8 1008278
03:00+7с4595100 2.4 1009347
06:00+6ссз3492100 1.6 1010397
09:00+6сз458886 1.6 1012422
12:00+7зсз458094 0.0 1013583
15:00+8зсз3476100 0.0 1014717
18:00+7с237799 0.0 1015269
21:00+6вюв348490 0.0 101694
6 декабря, пн
пн600:00+6юв359125 0.0 1015103
03:00+7ююв3388100 0.0 101672
06:00+8юв2385100 0.0 101562
09:00+9ююв3481100 0.0 101587
12:00+12ююв5107284 0.1 1015308
15:00+12ююв367480 0.3 1014136
18:00+11ююв4677100 0.0 101578
21:00+12ююв4874100 0.0 1014130
7 декабря, вт
вт700:00+11ю4772100 0.0 101487
03:00+11ююв4769100 0.0 101489
06:00+10ююв4770100 0.0 101287
09:00+10юв4673100 0.0 101294
12:00+15юв4559100 0.0 1010204
15:00+16юв455399 0.0 1007159
18:00+11юв477382 0.0 1006104
21:00+10юв4880100 0.0 1005134
8 декабря, ср
ср800:00+11ююв6117314 0.0 1003162
03:00+10ююв71280100 0.0 1002189
06:00+10ююв5980100 0.0 1001146
09:00+11ююв467183 0.0 100293
12:00+15ююв2655100 0.0 1003271
15:00+15зсз2260100 0.0 1003244
18:00+12з4879100 0.3 1005352
21:00+11зюз4986100 3.6 1007560